User: anonymous   Login
Location: Walnut Point State Park
(39.6958°N, 88.0345°W)
Time: 21:49:23
(UTC-05:00)
Language:

ATLAS 3B R/B - Orbit

View from above orbital plane
View from above orbital plane
View from above satellite
View from above satellite

Ground track
Ground track

The orbit data is extracted from the following two-line orbital elements,

1 28538U 05004B   15112.89150303 0.00000100  00000-0  15473-3 0    01
2 28538  63.8210 119.1796 0203000 228.6351 131.3649 13.43058106    02
Epoch (UTC): 22 April 2015 21:23:45
Eccentricity: 0.0203000
inclination: 63.8210°
perigee height: 946 km
apogee height: 1249 km
right ascension of ascending node: 119.1796°
argument of perigee: 228.6351°
revolutions per day: 13.43058106
mean anomaly at epoch: 131.3649°
orbit number at epoch: 0

The dashed part of the orbit path shows where the satellite is in the earth's shadow,  

DLR